Location: Chuathbaluk
(61.5726°N, 159.2454°W)
Time: 00:47:43
(UTC+00:00)

MOZHAYETS 4 - Visible Passes

Search period start: 24 January 2021 00:00
Search period end: 03 February 2021 00:00
Orbit: 661 x 680 km, 98.1° (Epoch: 23 January)

Date Brightness Start Highest point End Pass type
(mag) Time Alt. Az. Time Alt. Az. Time Alt. Az.
24 Jan 9.2 03:20:04 10° N 03:24:12 33° NW 03:28:20 10° WSW visible
24 Jan 10.3 04:58:22 10° N 05:00:11 12° NNW 05:01:59 10° NW visible
25 Jan 9.8 03:53:17 10° N 03:56:52 23° NW 04:00:28 10° W visible
26 Jan 10.2 04:26:37 10° N 04:29:27 16° NW 04:32:17 10° WNW visible
27 Jan 9.3 03:21:51 10° N 03:25:57 33° NW 03:30:04 10° WSW visible
27 Jan 10.3 05:00:10 10° N 05:01:55 12° NNW 05:03:40 10° NW visible
28 Jan 9.8 03:55:03 10° N 03:58:38 23° NW 04:02:12 10° W visible
29 Jan 10.2 04:28:23 10° N 04:31:11 16° NW 04:34:00 10° WNW visible
30 Jan 9.3 03:23:37 10° N 03:27:43 32° NW 03:31:49 10° WSW visible
30 Jan 10.4 05:01:58 10° N 05:03:39 12° NNW 05:05:21 10° NW visible
31 Jan 9.8 03:56:50 10° N 04:00:22 22° NW 04:03:55 10° W visible
01 Feb 10.2 04:30:10 10° N 04:32:56 16° NW 04:35:42 10° WNW visible
02 Feb 9.3 03:25:23 10° N 03:29:28 31° NW 03:33:33 10° WSW visible
02 Feb 10.4 05:03:46 10° N 05:05:24 12° NNW 05:07:02 10° NW visible
